Danville, ME

7:25 PM EDT on August 29, 2016 (GMT -0400)
Auburn-Lewiston Municipal

Weather History for KLEW - September, 2013

Change the Weather History Date:

Wednesday, September 18, 2013

  Actual Average Record
Temperature  
Mean Temperature 53 °F -  
Max Temperature 69 °F 67 °F 82 °F (2015)
Min Temperature 37 °F 48 °F 35 °F (2007)
Degree Days  
Heating Degree Days 12    
Growing Degree Days 3 (Base 50)    
Moisture  
Dew Point 42 °F    
Average Humidity 69    
Maximum Humidity 100    
Minimum Humidity 28    
Precipitation  
Precipitation 0.00 in - - ()
Sea Level Pressure  
Sea Level Pressure 30.24 in    
Wind  
Wind Speed 3 mph (WSW)    
Max Wind Speed 9 mph    
Max Gust Speed -    
Visibility 10 miles    
Events      
Averages and records for this station are not official NWS values.
T = Trace of Precipitation, MM = Missing Value Source: NWS Daily Summary

Daily Weather History Graph

Daily Weather History Graph

Search for Another Location

Airport or City:

Trip Planner

Search our weather history database for the weather conditions in past years. The results will help you decide how hot, cold, wet, or windy it might be!

Date:

Astronomy

Sep. 18, 2013 Rise Set
Actual Time 6:23 AM EDT 6:45 PM EDT
Civil Twilight 5:55 AM EDT 7:14 PM EDT
Nautical Twilight 5:20 AM EDT 7:48 PM EDT
Astronomical Twilight 4:45 AM EDT 8:23 PM EDT
Moon 6:06 PM EDT (9/18) 5:22 AM EDT (9/18)
Length of Visible Light 13h 19m
Length of Day
12h 21m
Waxing Gibbous, 99% of the Moon is Illuminated
Sep 18
Waxing Gibbous
Sep 19
Full
Sep 26
Last Quarter
Oct 4
New
Oct 11
First Quarter

Hourly Weather History & Observations

Time (EDT) Temp. Windchill Dew Point Humidity Pressure Visibility Wind Dir Wind Speed Gust Speed Precip Events Conditions
12:15 AM 42.8 °F 38.6 °F 39.2 °F 87% 30.30 in 10.0 mi South 6.9 mph - N/A   Unknown
12:35 AM 42.8 °F - 39.2 °F 87% 30.30 in 10.0 mi Calm Calm - N/A   Unknown
12:55 AM 42.8 °F - 39.2 °F 87% 30.29 in 10.0 mi Calm Calm - N/A   Unknown
1:15 AM 42.8 °F - 39.2 °F 87% 30.29 in 10.0 mi Calm Calm - N/A   Unknown
1:35 AM 39.2 °F - 37.4 °F 93% 30.29 in 10.0 mi Calm Calm - N/A   Unknown
1:55 AM 41.0 °F - 37.4 °F 87% 30.28 in 10.0 mi Calm Calm - N/A   Unknown
2:15 AM 41.0 °F - 37.4 °F 87% 30.28 in 10.0 mi Calm Calm - N/A   Unknown
2:35 AM 39.2 °F - 37.4 °F 93% 30.27 in 10.0 mi Calm Calm - N/A   Unknown
2:55 AM 39.2 °F - 35.6 °F 87% 30.27 in 10.0 mi Calm Calm - N/A   Unknown
3:15 AM 39.2 °F - 37.4 °F 93% 30.27 in 10.0 mi Calm Calm - N/A   Unknown
3:35 AM 37.4 °F - 35.6 °F 93% 30.27 in 10.0 mi Calm Calm - N/A   Unknown
3:56 AM 39.2 °F - 39.2 °F 100% 30.27 in 10.0 mi Calm Calm - N/A   Unknown
4:15 AM 37.4 °F - 35.6 °F 93% 30.27 in 10.0 mi Calm Calm - N/A   Unknown
4:35 AM 42.8 °F - 39.2 °F 87% 30.27 in 10.0 mi Calm Calm - N/A   Unknown
4:55 AM 37.4 °F - 35.6 °F 93% 30.27 in 10.0 mi Calm Calm - N/A   Unknown
5:15 AM 37.4 °F - 35.6 °F 93% 30.27 in 10.0 mi Calm Calm - N/A   Unknown
5:35 AM 37.4 °F - 33.8 °F 87% 30.27 in 10.0 mi Calm Calm - N/A   Unknown
5:55 AM 39.2 °F - 37.4 °F 93% 30.28 in 10.0 mi Calm Calm - N/A   Unknown
6:15 AM 39.2 °F - 37.4 °F 93% 30.27 in 10.0 mi Calm Calm - N/A   Unknown
6:35 AM 37.4 °F - 35.6 °F 93% 30.27 in 10.0 mi Calm Calm - N/A   Unknown
6:55 AM 39.2 °F - 37.4 °F 93% 30.28 in 10.0 mi Calm Calm - N/A   Unknown
7:15 AM 39.2 °F - 37.4 °F 93% 30.28 in 10.0 mi Calm Calm - N/A   Unknown
7:55 AM 44.6 °F 43.1 °F 42.8 °F 93% 30.28 in 10.0 mi North 3.5 mph - N/A   Unknown
8:15 AM 46.4 °F 45.2 °F 42.8 °F 87% 30.28 in 10.0 mi North 3.5 mph - N/A   Unknown
8:35 AM 48.2 °F - 44.6 °F 87% 30.28 in 10.0 mi Calm Calm - N/A   Unknown
8:55 AM 50.0 °F - 44.6 °F 82% 30.28 in 10.0 mi Calm Calm - N/A   Unknown
9:15 AM 53.6 °F - 46.4 °F 77% 30.27 in 10.0 mi Calm Calm - N/A   Unknown
9:35 AM 55.4 °F - 46.4 °F 72% 30.27 in 9.0 mi Calm Calm - N/A   Unknown
9:55 AM 59.0 °F - 46.4 °F 63% 30.27 in 7.0 mi Calm Calm - N/A   Unknown
10:15 AM 60.8 °F - 42.8 °F 52% 30.26 in 10.0 mi NNW 3.5 mph - N/A   Unknown
10:35 AM 62.6 °F - 39.2 °F 42% 30.25 in 10.0 mi NW 6.9 mph - N/A   Unknown
10:55 AM 62.6 °F - 39.2 °F 42% 30.25 in 10.0 mi NNW 5.8 mph - N/A   Unknown
11:15 AM 62.6 °F - 42.8 °F 48% 30.24 in 10.0 mi NNW 5.8 mph - N/A   Unknown
11:35 AM 64.4 °F - 41.0 °F 42% 30.24 in 10.0 mi NW 6.9 mph - N/A   Unknown
11:55 AM 64.4 °F - 41.0 °F 42% 30.24 in 10.0 mi NW 5.8 mph - N/A   Unknown
12:15 PM 66.2 °F - 42.8 °F 43% 30.22 in 10.0 mi NW 6.9 mph - N/A   Unknown
12:35 PM 68.0 °F - 44.6 °F 43% 30.22 in 10.0 mi WSW 5.8 mph - N/A   Clear
12:55 PM 68.0 °F - 39.2 °F 35% 30.21 in 10.0 mi West 5.8 mph - N/A   Clear
1:15 PM 68.0 °F - 42.8 °F 40% - 10.0 mi WSW 9.2 mph - N/A   Clear
1:35 PM 68.0 °F - 39.2 °F 35% - 10.0 mi WNW 5.8 mph - N/A   Clear
1:55 PM 69.8 °F - 39.2 °F 33% - 10.0 mi SW 9.2 mph - N/A   Clear
2:15 PM 68.0 °F - 39.2 °F 35% - 10.0 mi SW 9.2 mph - N/A   Clear
2:35 PM 68.0 °F - 37.4 °F 33% - 10.0 mi SW 9.2 mph - N/A   Clear
2:55 PM 69.8 °F - 35.6 °F 28% - 10.0 mi SW 6.9 mph - N/A   Clear
3:15 PM 69.8 °F - 37.4 °F 31% - 10.0 mi SW 8.1 mph - N/A   Clear
3:35 PM 69.8 °F - 42.8 °F 38% - 10.0 mi SW 8.1 mph - N/A   Clear
3:55 PM 69.8 °F - 42.8 °F 38% - 10.0 mi SW 5.8 mph - N/A   Clear
4:15 PM 69.8 °F - 42.8 °F 38% - 10.0 mi West 5.8 mph - N/A   Clear
4:35 PM 69.8 °F - 42.8 °F 38% - 10.0 mi SW 3.5 mph - N/A   Clear
4:55 PM 69.8 °F - 42.8 °F 38% - 10.0 mi WSW 3.5 mph - N/A   Clear
5:15 PM 69.8 °F - 44.6 °F 40% - 10.0 mi SW 4.6 mph - N/A   Clear
5:35 PM 69.8 °F - 46.4 °F 43% - 10.0 mi SSW 4.6 mph - N/A   Clear
5:55 PM 68.0 °F - 46.4 °F 46% - 10.0 mi SSW 3.5 mph - N/A   Clear
6:15 PM 66.2 °F - 48.2 °F 52% - 10.0 mi South 3.5 mph - N/A   Clear
6:35 PM 62.6 °F - 51.8 °F 68% - 10.0 mi South 6.9 mph - N/A   Clear
6:55 PM 60.8 °F - 48.2 °F 63% - 10.0 mi SE 6.9 mph - N/A   Clear
7:15 PM 59.0 °F - 46.4 °F 63% - 10.0 mi SSE 6.9 mph - N/A   Clear
7:35 PM 57.2 °F - 46.4 °F 67% - 10.0 mi SSE 5.8 mph - N/A   Clear
7:55 PM 55.4 °F - 46.4 °F 72% - 10.0 mi South 3.5 mph - N/A   Clear
8:15 PM 53.6 °F - 46.4 °F 77% - 10.0 mi Calm Calm - N/A   Clear
8:35 PM 53.6 °F - 46.4 °F 77% - 10.0 mi Calm Calm - N/A   Clear
8:55 PM 53.6 °F - 46.4 °F 77% - 10.0 mi Calm Calm - N/A   Clear
9:15 PM 50.0 °F - 44.6 °F 82% - 10.0 mi Calm Calm - N/A   Clear
9:35 PM 51.8 °F - 46.4 °F 82% 30.13 in 10.0 mi Calm Calm - N/A   Clear
10:15 PM 48.2 °F - 46.4 °F 93% 30.12 in 10.0 mi Calm Calm - N/A   Clear
10:35 PM 48.2 °F - 46.4 °F 93% 30.12 in 10.0 mi Calm Calm - N/A   Clear
10:55 PM 46.4 °F - 44.6 °F 93% 30.11 in 10.0 mi Calm Calm - N/A   Clear
11:15 PM 46.4 °F - 44.6 °F 93% 30.11 in 10.0 mi Calm Calm - N/A   Clear
11:35 PM 46.4 °F - 44.6 °F 93% 30.11 in 10.0 mi Calm Calm - N/A   Clear
11:55 PM 48.2 °F - 46.4 °F 93% 30.11 in 10.0 mi Calm Calm - N/A   Clear